Location: Caltech
(34.1382°N, 118.1253°W)
Time: 23:39:44
(UTC-07:00)

Cosmos 1408 Rocket - Visible Passes

Search period start: 28 July 2014 00:00
Search period end: 07 August 2014 00:00
Orbit: 604 x 632 km, 82.6° (Epoch: 28 July)

Date Brightness Start Highest point End Pass type
(mag) Time Alt. Az. Time Alt. Az. Time Alt. Az.
28 Jul 6.4 01:43:07 10° NNW 01:43:38 13° NNW 01:43:38 13° NNW visible
29 Jul 6.4 00:22:35 10° NNE 00:23:18 14° NNE 00:23:18 14° NNE visible
30 Jul 6.3 00:39:11 10° N 00:40:07 16° N 00:40:07 16° N visible
31 Jul 6.4 00:56:09 10° NNW 00:56:56 15° NNW 00:56:56 15° NNW visible
01 Aug 6.6 01:13:29 10° NNW 01:13:46 12° NNW 01:13:46 12° NNW visible
01 Aug 6.4 23:52:54 10° NNE 23:53:29 13° NNE 23:53:29 13° NNE visible
03 Aug 6.4 00:09:31 10° N 00:10:20 15° N 00:10:20 15° N visible
04 Aug 6.5 00:26:30 10° NNW 00:27:11 14° NNW 00:27:11 14° NNW visible
05 Aug 6.7 00:43:50 10° NNW 00:44:03 11° NNW 00:44:03 11° NNW visible
05 Aug 6.3 23:23:13 10° NNE 23:23:49 13° NNE 23:23:49 13° NNE visible
06 Aug 6.3 23:39:51 10° N 23:40:42 15° N 23:40:42 15° N visible
